This is the latest recevied weather packets stored in our database for station/object 9M2SAR-10. If no packets are shown the sender has not sent any weather packets the latest 10 day(s).
| Time | Temp. | Humidity | Pressure | Rain* | Wind** | Luminosity | Snow |
|---|---|---|---|---|---|---|---|
| 1777595474 | 27.22° C | 100% | 1010 hPa | - | - | - | - |
| 1777594574 | 26.67° C | 100% | 1010 hPa | - | - | - | - |
| 1777593674 | 26.67° C | 100% | 1010 hPa | - | - | - | - |
| 1777592774 | 26.11° C | 100% | 1009.8 hPa | - | - | - | - |
| 1777591874 | 26.11° C | 100% | 1009.3 hPa | - | - | - | - |
| 1777590974 | 26.11° C | 100% | 1008.9 hPa | - | - | - | - |
| 1777590074 | 26.11° C | 100% | 1008.8 hPa | - | - | - | - |
| 1777589174 | 26.11° C | 100% | 1008.4 hPa | - | - | - | - |
| 1777588274 | 26.11° C | 100% | 1008.4 hPa | - | - | - | - |
| 1777587374 | 26.11° C | 100% | 1008.5 hPa | - | - | - | - |
| 1777586474 | 26.11° C | 100% | 1008.5 hPa | - | - | - | - |
| 1777585574 | 25.56° C | 100% | 1008.1 hPa | - | - | - | - |
| 1777584674 | 25.56° C | 100% | 1008.1 hPa | - | - | - | - |
| 1777583773 | 25° C | 100% | 1008.2 hPa | - | - | - | - |
| 1777582873 | 25.56° C | 100% | 1008.1 hPa | - | - | - | - |
| 1777581973 | 25.56° C | 100% | 1008.1 hPa | - | - | - | - |
| 1777581073 | 26.11° C | 100% | 1008.3 hPa | - | - | - | - |
| 1777580173 | 26.11° C | 100% | 1008.7 hPa | - | - | - | - |
| 1777579273 | 25.56° C | 100% | 1009.4 hPa | - | - | - | - |
| 1777578373 | 24.44° C | 100% | 1009.2 hPa | - | - | - | - |
| 1777577473 | 25° C | 100% | 1009.9 hPa | - | - | - | - |
| 1777576573 | 24.44° C | 100% | 1009.9 hPa | - | - | - | - |
| 1777575673 | 24.44° C | 100% | 1010.3 hPa | - | - | - | - |
| 1777574773 | 26.11° C | 100% | 1010.3 hPa | - | - | - | - |
| 1777573873 | 26.67° C | 100% | 1010.3 hPa | - | - | - | - |
* Rain since midnight (hover to see other rain measurements)
** Current wind speed in m/s (hover to see current wind gust speed)